Terug naar catalogus

SL-8 R/B

ActiefPO
NORAD 21938·ROCKET BODY·🇷🇺 Russia

Gelanceerd Apr 15, 1992 vanaf Plesetsk Cosmodrome

Loading…

Volgende Passages (komende 24 uur)

TLE

VersSource: Space-Track

Epoch: Sep 14, 2026, 07:09 UTC

1 21938U 92020B   26257.29839155  .00000091  00000-0  78248-4 0  9993
2 21938  82.9341  13.6525 0030154 129.8226 259.2311 13.75559907727063

Volg SL-8 R/B in realtime met AllMySat

Download on the App Store